Theta_e
306 306 307 307 307 308 308 308 308 308 307 307 307 306 306 306 306 306 306 306 307 307 307 307 306 306 306 306 307 306 305 306 308 308 308 308 308 306 305 305 305 305 306 308 309 309 311 312 311 311 312 313 313 315 316 315 314 313 314 313 312 313 313 314 315 315 314 315 317 315 316 315 320 333 336 337 334 330 330 332 337 341 344 347 350 351 350 350
304 304 305 306 306 307 307 308 308 308 308 307 307 306 306 306 306 305 305 306 306 307 307 306 306 306 305 306 306 305 305 307 307 308 309 308 307 306 305 304 304 305 306 309 310 309 310 312 310 310 311 312 312 314 315 315 313 313 315 313 313 315 314 315 315 315 315 315 316 316 317 314 324 338 339 338 333 329 334 338 341 345 348 349 350 350 350 350
303 303 303 304 305 306 306 307 307 308 308 308 308 307 307 306 306 306 305 306 305 306 307 306 306 305 305 306 306 305 306 307 307 308 310 310 310 308 307 306 305 304 306 310 309 309 310 312 312 310 310 311 312 313 314 314 313 313 315 314 315 316 315 315 314 314 314 314 315 316 316 315 325 335 335 338 335 333 337 339 343 347 350 348 347 350 350 349
302 302 301 302 303 303 304 306 306 306 307 308 308 308 307 307 306 306 305 305 305 306 307 306 306 305 305 305 305 305 306 306 308 310 309 309 310 309 307 307 307 305 307 308 308 309 311 313 312 310 309 310 311 312 313 314 314 313 314 315 315 316 315 315 314 314 314 315 315 315 316 315 321 324 327 336 337 335 337 336 341 346 349 347 345 349 350 349
303 302 301 301 302 302 302 303 305 306 306 307 307 308 308 307 307 306 305 305 305 306 306 306 306 305 305 305 304 305 306 306 308 310 306 307 308 307 308 309 309 308 308 308 308 310 310 312 312 310 310 310 311 312 313 314 314 314 315 314 315 316 315 315 315 314 314 315 315 315 316 315 317 317 320 333 337 334 333 337 341 343 347 346 346 349 350 349
303 303 303 302 302 302 302 301 302 304 306 306 306 307 308 308 307 306 305 305 306 306 306 306 305 304 304 304 305 306 306 307 308 307 305 305 306 306 308 309 309 311 310 308 308 309 310 312 312 311 310 310 311 312 312 314 314 315 316 314 315 316 314 315 316 315 315 315 315 315 316 316 316 315 318 327 333 336 336 340 342 343 346 346 347 349 348 348
303 303 303 302 302 302 302 302 302 301 303 305 306 306 307 308 308 306 305 304 305 306 306 305 305 304 304 304 306 306 306 307 308 306 305 304 305 305 308 313 314 313 312 309 308 308 309 311 311 311 310 310 311 312 312 313 314 314 314 315 315 315 314 315 315 315 315 315 316 316 316 316 315 316 320 324 332 341 340 340 343 344 346 346 346 347 347 348
303 303 303 303 303 303 303 303 303 302 301 303 305 306 306 307 308 307 306 305 304 305 306 305 304 304 304 304 306 306 305 307 308 306 305 304 305 305 311 321 320 315 311 309 308 308 309 311 311 311 310 310 311 312 312 313 313 312 312 315 315 315 314 315 315 315 315 315 316 316 316 315 317 320 324 327 335 343 340 340 343 343 344 345 346 347 347 348
303 303 303 303 303 303 303 302 303 303 302 302 303 305 305 305 307 308 306 306 304 304 305 304 304 304 304 305 305 305 305 306 306 306 305 305 305 304 310 320 319 314 311 309 308 309 310 310 311 311 310 311 311 312 313 312 313 312 312 313 315 314 315 315 315 315 315 315 315 316 315 316 326 328 327 332 341 344 342 342 344 344 344 345 346 347 347 346
303 303 303 303 303 303 303 303 303 303 303 302 302 304 304 304 306 307 307 306 305 304 304 304 305 304 304 305 304 305 305 306 306 306 306 305 305 305 307 312 315 314 311 310 308 309 311 310 311 311 311 311 311 311 312 312 312 314 313 313 314 314 314 315 315 315 315 315 315 316 314 319 333 334 333 340 345 345 344 344 344 344 344 345 346 347 347 346
303 303 303 303 303 303 303 303 303 303 303 303 303 303 304 304 305 307 307 306 305 304 303 304 304 304 304 304 304 305 305 306 306 306 306 305 304 306 306 307 311 314 311 309 309 309 310 311 312 311 310 311 311 311 312 312 313 314 313 313 314 313 314 315 315 315 315 315 315 315 315 323 334 335 337 346 346 345 345 345 345 345 344 345 346 347 347 346
303 303 303 303 303 303 303 303 303 303 303 304 303 302 303 304 304 306 307 307 305 304 303 303 303 304 305 304 303 305 305 304 305 304 304 305 304 305 305 305 308 313 312 309 309 309 310 311 311 311 310 311 311 312 313 313 313 313 312 313 313 313 314 313 314 314 314 315 315 315 317 323 331 333 339 347 347 346 346 346 347 347 345 345 347 347 346 346
303 303 303 303 303 303 303 303 302 303 303 303 303 302 302 304 304 305 307 307 305 304 303 303 303 304 304 304 304 305 304 303 304 304 304 305 305 305 305 305 307 312 312 309 309 310 310 310 310 310 310 312 312 312 312 312 312 312 312 312 313 313 312 313 314 314 315 315 315 316 315 319 327 332 342 348 346 346 347 348 348 347 346 345 347 347 346 345
303 303 303 303 303 303 303 303 302 302 302 303 302 301 301 303 303 304 306 306 305 304 303 302 303 304 304 304 304 305 304 303 304 304 305 306 306 305 306 305 308 312 312 309 309 309 310 310 310 310 311 311 312 311 312 312 311 311 311 312 313 311 311 314 314 313 315 314 316 317 313 317 325 333 343 347 344 345 347 348 348 347 346 345 347 347 345 345
302 302 302 302 302 303 303 302 302 302 302 302 302 301 301 302 303 303 305 306 306 304 302 302 303 304 303 303 304 304 303 303 305 305 306 306 305 305 306 307 309 312 310 308 308 309 310 309 309 310 310 311 311 311 311 312 311 312 310 310 311 310 311 315 315 314 315 315 316 318 315 318 327 337 344 343 339 341 344 347 348 346 346 346 347 347 346 346
302 302 302 302 302 302 302 302 302 302 302 302 302 301 300 301 302 302 304 306 305 303 302 303 304 303 303 304 304 303 303 304 305 305 306 307 306 306 306 307 310 310 309 308 308 309 310 310 309 309 310 310 310 311 311 311 311 312 311 309 309 310 311 313 314 314 315 316 318 319 318 319 329 342 345 342 340 341 343 347 348 347 347 346 346 347 345 346
302 302 301 301 301 301 302 302 302 302 302 302 302 301 300 301 301 302 305 306 305 303 303 304 304 303 303 304 303 303 304 305 304 304 305 306 307 306 305 308 309 309 309 309 309 309 310 310 309 309 310 310 311 311 311 309 309 311 311 310 311 311 310 310 312 314 314 316 318 320 320 321 334 345 347 344 344 345 344 345 346 347 347 346 346 346 346 346
301 301 301 300 300 300 301 301 302 302 301 301 301 301 300 300 301 304 306 305 304 303 303 303 303 304 305 304 304 304 305 305 304 304 305 305 306 306 306 308 309 309 309 308 308 309 310 311 310 309 309 310 311 311 310 310 310 310 310 310 312 311 311 311 311 313 314 315 318 319 318 324 338 345 346 345 344 344 343 341 340 340 343 346 346 345 346 346
301 301 301 300 298 298 300 301 302 302 301 301 301 301 300 301 303 304 305 305 303 303 304 304 303 305 305 303 303 304 304 304 304 304 305 305 306 307 307 308 309 309 308 308 308 309 310 310 310 309 309 310 311 312 311 312 313 312 311 311 311 309 311 313 312 313 314 315 317 318 317 325 337 341 343 344 342 344 342 339 337 337 338 344 347 346 346 345
301 301 301 300 299 298 299 300 301 301 301 301 302 302 301 301 302 303 304 304 303 304 305 304 304 304 304 303 303 303 303 303 304 305 306 306 306 307 306 307 309 308 308 308 308 309 309 310 309 309 309 310 310 312 313 314 315 314 313 312 311 310 310 313 314 313 314 314 316 319 318 325 334 337 342 342 341 345 343 340 340 340 340 343 346 345 344 344
301 301 301 300 299 299 299 300 301 301 301 301 302 302 300 301 301 302 303 303 303 304 303 304 305 304 304 305 305 304 302 302 304 305 306 306 307 306 306 307 308 308 308 308 309 308 308 310 310 309 310 310 310 312 313 314 314 313 312 311 311 311 311 313 313 313 314 314 315 318 319 324 331 335 341 342 341 345 345 343 344 346 346 345 341 337 337 339
301 301 300 299 299 299 299 300 301 301 300 301 302 302 300 301 302 302 303 303 303 304 303 304 305 304 305 305 305 304 302 302 302 304 305 306 306 306 306 307 309 309 309 309 309 309 308 309 310 310 310 310 310 311 313 314 314 313 312 311 310 311 312 312 313 313 314 313 315 317 318 323 331 335 340 341 341 344 344 344 346 347 346 343 337 333 335 336
301 300 300 299 299 299 300 300 300 300 299 300 301 301 300 302 303 302 303 303 303 303 303 303 304 304 304 304 304 303 302 302 302 304 306 306 306 306 307 307 309 310 309 310 310 309 308 309 310 310 309 309 310 311 312 313 313 313 313 310 309 311 311 310 312 314 314 314 316 316 317 324 331 335 339 341 339 342 343 344 346 346 344 342 338 336 336 336
300 299 299 299 299 299 300 299 299 300 300 300 301 301 301 302 302 302 303 303 303 303 303 304 304 304 304 304 305 303 302 302 302 303 306 305 306 307 307 308 309 310 310 310 311 310 308 309 310 309 309 309 309 310 311 312 312 313 313 311 310 312 312 310 312 314 313 314 317 315 318 325 332 334 338 341 341 341 342 344 345 344 343 342 339 337 336 334
299 299 299 299 299 298 299 299 300 301 301 301 301 300 301 302 302 302 302 302 303 303 303 304 304 304 305 305 304 303 303 302 302 304 306 306 306 307 307 308 309 310 311 311 310 309 309 310 311 309 308 309 309 309 310 311 311 312 314 313 313 313 312 312 313 313 310 311 315 316 316 320 327 330 333 339 342 342 342 344 344 343 342 341 340 339 336 334
299 299 299 299 298 298 299 300 301 301 301 301 301 300 302 302 301 302 302 302 302 303 303 304 304 304 305 305 304 302 302 303 303 304 305 306 307 307 308 308 309 311 312 311 311 310 310 311 310 309 308 308 308 308 309 310 309 310 313 313 313 313 312 312 312 311 309 309 314 316 313 315 322 327 329 336 341 342 342 343 343 343 341 340 340 339 336 335
299 299 299 298 298 298 300 300 300 301 300 301 301 301 302 301 301 301 302 302 302 303 304 304 304 304 304 305 303 302 302 304 303 304 304 305 307 307 308 308 309 310 312 312 311 312 312 311 310 309 309 308 308 308 309 310 309 309 312 313 313 312 312 312 311 310 311 312 313 314 312 313 318 324 328 330 335 339 341 341 341 342 340 338 339 340 338 336
299 299 298 298 297 298 300 300 300 301 301 301 301 300 301 301 300 301 302 303 303 303 304 304 303 303 303 304 303 302 304 304 303 303 304 305 306 307 307 308 309 310 312 312 312 313 312 311 310 309 309 308 308 309 309 309 309 310 312 313 313 313 312 312 311 310 312 312 310 311 312 311 313 320 327 329 329 333 337 339 340 340 339 337 337 339 339 337
298 298 298 298 297 298 299 299 300 301 301 300 299 299 301 300 300 302 302 303 304 302 304 304 303 303 303 303 302 302 303 304 304 304 304 305 306 306 307 308 309 311 312 312 312 312 312 311 310 309 310 309 309 310 310 309 310 311 312 313 313 314 313 313 312 310 311 312 310 310 311 309 310 317 326 331 329 328 332 336 339 339 338 337 337 338 338 338
298 298 298 298 298 299 300 300 300 300 300 300 298 298 299 300 301 302 303 304 304 303 303 303 303 304 304 303 302 302 303 304 305 304 304 305 306 306 307 309 309 310 312 311 311 312 312 311 311 310 310 310 310 311 310 309 310 311 311 311 312 313 313 313 313 311 311 312 310 310 311 309 310 314 322 328 328 328 327 330 336 339 338 337 337 338 338 337
297 297 298 298 299 299 300 301 300 300 300 300 299 297 299 301 302 303 304 304 305 305 304 303 304 305 304 303 302 301 302 304 305 304 305 305 306 306 307 309 310 310 311 311 311 311 311 312 311 311 311 311 311 311 310 310 310 311 310 310 311 312 313 312 312 312 312 312 310 310 311 309 308 312 319 324 326 327 326 326 333 339 338 337 337 337 337 336
297 297 297 297 298 299 299 300 300 300 300 300 300 298 299 302 302 304 304 303 306 307 306 304 304 305 304 304 303 302 302 305 305 304 305 306 306 306 307 309 310 311 311 311 311 311 311 311 311 311 311 311 311 310 310 310 310 310 309 309 310 311 313 313 312 312 312 311 310 310 311 309 309 313 319 324 324 324 324 323 329 338 339 338 337 336 337 337
297 297 297 297 298 298 299 300 300 300 300 300 299 298 301 303 303 304 303 305 307 307 306 305 305 305 305 304 303 302 303 305 305 305 306 306 307 306 307 309 309 310 311 311 311 311 310 311 311 311 311 311 311 310 309 309 310 310 308 308 309 311 315 316 313 313 312 311 311 311 311 310 309 312 317 322 325 325 327 327 329 335 338 338 338 336 336 337
298 298 298 297 298 298 299 300 300 300 300 300 299 300 303 304 304 303 303 306 307 305 305 306 305 306 306 305 303 302 303 305 304 305 306 306 307 307 307 308 309 310 311 311 311 310 310 311 311 311 311 311 311 310 310 310 309 309 309 310 309 309 313 315 312 312 312 311 311 311 311 309 309 316 324 328 330 332 333 334 335 336 338 339 338 337 337 337
299 300 299 298 299 299 299 300 300 300 300 299 300 302 304 304 304 305 304 304 305 304 304 305 305 306 306 305 303 302 304 305 305 305 306 307 308 308 307 308 309 309 311 311 311 310 310 311 310 310 311 310 310 310 311 311 309 310 311 310 309 310 311 312 313 313 312 311 313 312 311 311 316 325 332 332 331 332 332 333 335 336 338 339 339 338 338 337
300 301 301 300 301 301 300 300 300 300 299 300 301 303 303 304 304 304 304 304 304 303 304 306 306 307 307 306 304 303 304 305 305 306 307 307 308 308 308 308 309 310 311 312 311 310 310 310 309 310 311 310 310 311 311 311 310 310 309 309 310 312 312 311 313 314 311 312 314 312 311 313 317 322 330 333 331 331 330 330 333 336 338 339 339 339 339 338
302 302 302 301 301 302 301 300 300 299 300 301 303 303 303 304 304 303 303 303 303 303 305 307 307 307 307 306 304 303 304 305 305 306 307 308 308 308 308 308 309 310 311 311 311 311 311 311 310 309 310 310 310 311 311 311 311 310 309 310 311 312 313 312 311 312 312 312 314 313 312 312 311 318 332 334 331 332 331 330 335 337 338 339 340 340 339 339
303 302 302 301 301 301 301 300 299 300 301 302 303 304 304 304 304 303 302 302 303 304 305 307 307 307 308 306 303 303 305 306 306 307 308 308 308 309 308 308 309 309 310 311 311 311 311 310 310 310 310 310 310 311 310 310 311 311 310 311 312 311 311 311 311 312 313 312 314 315 313 310 310 318 331 331 329 334 334 333 337 338 338 339 340 340 339 338
302 302 302 301 300 300 300 299 300 301 302 303 304 305 304 304 304 304 302 302 303 304 305 307 307 307 308 306 303 303 305 306 306 307 308 308 309 309 308 308 309 309 310 310 311 311 311 311 310 310 310 310 310 310 310 309 310 311 311 311 311 311 310 310 311 312 312 311 313 315 314 312 311 318 326 326 327 334 336 336 338 338 339 340 340 339 339 338
302 302 302 302 300 299 298 299 301 302 303 304 304 304 304 304 304 304 303 302 303 304 305 307 307 308 308 306 303 304 305 306 307 307 308 308 309 309 308 308 308 309 309 310 310 310 311 312 311 309 310 310 310 310 310 310 310 310 310 310 310 311 311 311 310 309 310 310 311 316 317 314 314 320 324 325 328 334 337 338 338 339 340 340 339 339 338 337
302 301 302 302 301 299 299 301 303 304 303 303 304 303 303 303 303 303 303 303 303 303 304 305 306 308 308 306 304 304 306 306 307 307 308 308 308 309 309 308 308 309 309 309 310 310 311 312 311 309 310 310 310 310 310 311 311 310 310 311 310 311 311 311 311 310 310 310 310 314 315 314 321 330 329 329 334 337 337 337 338 339 340 339 339 338 337 336
301 301 302 302 301 301 301 302 303 303 302 302 303 302 302 303 303 303 303 303 303 303 304 305 306 308 309 307 305 304 306 307 306 308 308 307 308 309 308 308 309 308 309 309 310 311 311 311 311 310 310 310 311 311 311 311 311 310 310 311 311 311 310 309 311 311 310 311 313 313 312 316 330 337 333 335 338 336 336 337 338 339 339 340 339 337 336 335
301 301 302 302 302 302 302 302 302 302 301 302 302 302 302 302 302 303 303 303 304 305 305 307 307 308 309 309 306 305 306 307 307 307 308 307 308 308 308 308 308 308 309 310 310 311 311 311 311 311 309 309 311 311 311 312 311 310 310 311 311 312 311 310 311 311 310 310 313 313 311 318 334 337 333 336 337 337 337 336 338 339 339 339 339 337 337 335
301 301 302 302 302 302 302 301 301 302 302 303 304 304 303 303 303 303 304 305 306 306 307 308 308 308 308 309 309 307 306 307 307 307 308 308 308 308 308 307 308 309 309 310 311 310 310 310 311 311 310 311 312 311 311 311 311 310 311 311 312 312 312 312 312 312 311 309 311 312 309 318 335 337 333 335 336 336 336 335 337 339 339 338 337 337 336 334
302 301 301 302 303 302 302 301 302 303 303 304 304 305 305 305 305 304 305 306 306 306 308 308 307 308 308 309 311 309 307 307 307 307 308 308 308 307 307 307 309 308 308 312 313 310 309 311 311 312 312 312 312 311 311 311 310 311 311 311 312 311 311 313 312 311 311 309 309 310 309 321 336 337 333 335 336 335 336 336 337 338 337 336 335 335 335 334
302 302 302 302 303 302 301 302 303 303 304 304 305 305 306 306 306 305 305 306 307 307 308 308 308 309 309 310 310 308 307 307 308 308 308 309 308 306 307 308 307 308 312 316 315 310 310 312 312 312 311 310 311 311 311 311 311 311 311 310 311 312 312 313 311 310 310 309 310 310 311 320 331 335 335 336 336 335 336 337 337 337 335 334 333 333 334 333
303 303 302 303 303 302 302 304 304 303 304 304 305 306 306 306 306 306 306 308 308 308 308 308 309 310 312 312 309 308 308 307 307 308 308 309 309 306 307 308 307 312 316 315 313 311 311 312 313 314 314 313 313 313 312 312 311 311 311 312 311 311 313 313 311 311 311 311 311 313 313 315 323 334 336 335 335 335 335 336 337 336 334 333 332 331 332 333
304 303 302 302 303 304 304 305 304 304 304 304 304 305 305 305 306 307 307 308 308 308 309 310 309 311 313 313 310 309 309 308 308 309 309 310 309 307 307 307 308 313 314 310 310 312 311 311 313 316 317 317 317 316 313 311 311 311 312 313 312 311 313 313 313 313 314 313 311 313 316 315 318 328 334 334 335 335 335 336 336 334 332 331 330 329 329 329
304 303 303 303 304 304 304 304 304 305 305 305 305 305 305 306 307 309 310 310 311 309 309 312 313 313 314 314 313 311 310 310 310 311 311 310 309 308 308 307 308 310 310 308 311 313 311 311 314 315 317 319 320 319 317 313 312 312 312 312 313 312 313 314 314 315 316 315 314 316 319 317 318 326 333 335 335 334 334 334 334 332 330 328 328 328 327 325
302 302 302 303 304 305 305 303 304 305 305 306 306 306 306 307 309 311 311 312 314 312 310 312 314 314 314 314 314 313 314 315 313 313 313 311 310 309 309 308 308 308 308 310 312 313 312 312 314 315 316 320 322 322 320 316 313 313 312 312 313 313 313 314 315 316 316 315 316 319 318 317 325 333 335 335 334 333 333 332 332 332 329 327 328 328 326 325
301 301 301 302 304 306 306 305 306 307 307 307 308 308 308 309 311 312 312 312 313 313 313 313 314 314 315 315 315 315 317 318 316 315 316 314 312 311 310 309 309 308 309 311 312 313 312 311 314 314 314 318 320 321 321 320 317 315 313 313 314 314 314 315 314 316 318 316 317 318 315 317 328 335 334 334 333 333 333 332 332 331 329 328 327 327 327 326
300 301 301 302 304 306 307 307 308 309 310 310 310 311 312 312 312 312 312 312 312 313 313 314 314 315 316 317 317 316 316 317 318 317 317 317 316 315 313 310 309 309 311 312 312 312 310 310 313 312 312 317 319 320 322 322 318 316 316 318 317 315 315 316 317 321 321 317 316 316 315 322 332 333 333 333 333 332 332 332 331 330 329 328 327 326 326 326
Wind_Speed
15 15 15 14 14 13 12 12 12 11 12 12 12 12 12 12 13 12 13 14 14 14 14 14 15 17 17 18 19 21 24 23 20 17 17 17 12 12 14 12 8 7 14 9 6 7 7 9 10 11 10 8 7 6 8 8 6 6 6 8 7 8 8 5 7 4 1 3 8 4 1 5 6 2 2 3 9 11 10 11 8 8 5 5 15 26 28 28
16 16 16 16 15 15 14 13 13 12 12 12 12 12 12 12 12 13 13 13 13 14 14 14 15 16 17 18 19 22 23 21 19 20 19 17 14 15 18 18 13 8 12 10 9 12 9 9 10 11 9 7 6 7 8 8 8 8 6 7 8 7 4 1 4 3 2 2 1 1 1 5 6 3 1 4 9 13 12 12 11 10 11 12 18 24 27 28
16 16 16 16 16 16 15 15 15 14 13 13 12 12 12 11 11 12 13 13 13 14 13 13 14 15 17 17 19 20 20 19 16 12 8 5 7 10 13 16 17 14 13 10 9 11 11 8 10 11 9 7 7 8 9 8 8 9 7 7 8 7 2 2 4 3 4 4 4 4 3 5 3 2 3 5 7 12 13 12 13 13 13 14 17 22 26 26
16 17 16 16 16 16 16 16 16 16 15 15 14 13 12 12 11 11 12 13 12 13 13 13 14 15 16 17 19 18 16 14 7 2 4 2 2 0 3 8 14 18 17 12 9 10 10 8 9 11 9 8 8 8 9 9 8 8 8 9 6 4 5 4 6 5 5 4 6 5 5 6 2 3 5 5 7 11 12 12 13 14 15 16 18 20 23 23
15 16 16 16 16 16 16 16 16 17 16 16 15 14 14 12 11 12 11 12 12 12 13 12 13 14 15 17 18 16 12 7 2 8 8 5 3 4 3 4 8 15 18 14 11 10 10 11 11 10 9 8 8 9 10 11 9 7 9 12 5 2 6 4 4 5 4 5 6 6 7 6 4 6 7 7 8 8 9 11 10 11 15 17 18 18 19 20
15 15 16 16 16 16 16 16 16 17 17 16 16 15 15 14 12 12 11 11 12 12 11 11 12 13 15 17 16 12 8 3 4 5 6 9 8 6 6 6 9 14 18 17 14 13 11 12 12 10 9 9 10 10 10 12 11 8 9 12 8 5 6 3 3 4 4 6 7 7 7 6 8 10 7 9 9 2 4 9 8 10 15 17 18 17 17 18
16 16 16 17 17 16 16 16 16 17 17 16 16 16 16 15 13 12 12 11 11 11 10 10 11 13 15 16 13 8 8 8 1 3 1 9 11 10 10 6 10 17 19 19 18 15 12 14 14 11 10 9 10 12 10 11 11 10 8 10 10 9 8 5 5 6 6 8 8 8 8 9 11 9 5 9 8 2 3 8 9 11 15 17 18 17 16 17
17 17 17 17 17 17 16 16 16 16 17 16 16 16 15 16 15 13 12 12 10 10 10 9 10 11 14 13 9 5 10 11 4 6 9 6 10 12 10 3 10 19 20 22 20 16 14 15 15 11 10 10 9 11 10 10 11 13 11 7 8 9 8 8 8 8 9 8 8 9 10 11 10 8 7 8 7 6 6 9 12 13 15 16 17 17 16 15
18 18 18 18 17 17 17 17 16 16 16 16 16 16 16 15 15 14 12 12 11 9 8 9 9 9 11 9 7 6 6 7 6 9 9 7 8 10 7 1 8 17 19 22 21 19 14 13 15 12 10 8 8 10 11 10 9 12 15 8 7 8 8 8 8 9 10 7 7 9 11 10 6 6 7 6 7 7 8 11 14 16 17 16 16 16 16 15
20 19 19 19 18 18 18 17 17 16 16 16 15 16 16 15 15 14 13 12 11 10 8 8 8 7 8 6 6 7 1 1 3 5 6 9 8 8 5 2 6 14 17 20 22 20 15 13 15 10 7 7 8 9 12 11 4 7 14 11 9 10 8 7 8 9 9 7 9 10 11 7 3 5 5 7 8 9 11 12 13 15 17 17 16 16 15 15
20 20 20 20 19 19 18 17 17 17 16 16 16 16 16 15 15 14 14 12 10 10 7 6 7 7 8 5 6 7 2 3 3 7 12 13 11 9 6 5 6 14 16 17 21 22 19 15 12 8 4 5 8 9 11 11 4 4 9 9 11 11 9 9 9 10 8 7 9 10 11 7 5 7 4 9 10 10 12 12 13 14 15 16 17 16 13 14
20 21 21 21 21 20 19 18 17 17 16 16 16 16 15 15 14 14 14 13 10 10 7 6 6 7 9 8 11 14 7 8 13 18 19 16 14 12 10 9 9 14 16 16 19 22 19 13 12 11 4 4 8 7 8 11 7 5 6 7 10 10 11 12 12 11 9 7 7 8 9 8 9 7 4 9 11 10 11 12 13 13 14 15 16 15 13 14
21 21 21 22 21 20 19 18 18 17 17 16 16 16 15 15 15 15 14 14 11 10 8 6 6 8 10 9 14 20 19 21 23 24 22 17 16 14 11 10 9 14 15 14 17 20 15 9 13 13 4 5 8 4 4 10 8 8 8 7 7 8 10 13 13 10 10 6 6 8 8 8 11 7 6 9 11 12 12 11 12 12 13 14 15 14 13 15
21 21 22 22 22 21 20 19 19 18 17 16 16 16 15 14 15 15 14 14 12 9 9 7 6 8 10 11 17 21 22 23 24 24 20 14 12 11 9 7 7 12 13 12 12 15 12 8 12 11 5 7 4 5 5 9 8 8 9 7 6 6 7 12 12 11 11 6 7 11 8 7 11 9 7 6 5 7 10 12 13 12 13 14 14 14 13 14
21 21 21 22 21 21 21 20 19 18 17 17 16 16 15 15 15 15 15 14 12 9 9 7 7 8 9 13 17 18 15 15 19 19 14 11 12 10 6 7 8 9 12 11 9 11 11 9 10 9 8 6 3 7 9 7 7 9 8 7 8 6 5 11 11 13 12 7 10 13 7 5 10 11 9 8 7 3 5 11 12 12 14 13 13 14 13 13
20 20 20 21 21 21 21 21 20 19 17 16 16 17 16 16 15 15 14 13 13 9 8 8 8 7 8 7 6 8 9 9 11 10 8 10 12 10 5 7 10 10 10 10 9 11 11 9 8 7 8 8 7 9 8 7 8 8 8 7 8 9 6 9 11 13 10 6 11 14 8 4 8 11 10 9 11 9 8 10 12 13 14 12 11 12 12 13
19 19 19 20 20 20 20 21 21 19 17 15 16 17 16 15 15 15 12 14 13 9 9 9 6 6 9 8 6 6 6 5 5 5 6 7 10 12 8 7 10 11 11 10 10 12 12 9 7 6 7 8 10 10 8 9 9 8 9 6 8 11 8 7 10 11 10 8 11 14 10 3 9 10 9 10 11 12 11 9 6 6 10 11 10 11 12 12
19 19 19 19 20 20 20 21 20 19 17 15 16 16 15 14 13 10 10 14 11 6 9 7 4 5 8 10 10 6 2 4 7 8 9 8 10 12 11 9 10 13 13 10 11 13 11 9 7 7 8 9 11 11 10 10 9 10 10 7 7 10 9 8 9 9 11 12 12 14 11 4 9 8 9 11 10 9 11 10 6 1 5 9 10 10 10 12
20 19 19 19 20 20 20 20 19 19 16 14 15 15 12 10 7 6 10 13 9 5 5 6 10 7 4 4 7 5 6 9 10 11 10 9 10 11 12 10 10 15 13 10 12 14 10 8 9 10 10 12 13 13 11 7 9 11 12 10 8 9 9 7 7 6 9 12 11 14 12 7 9 9 10 11 11 10 11 10 8 7 7 8 9 10 10 11
20 19 19 20 21 21 20 20 19 18 15 13 12 9 7 5 4 6 8 10 9 7 6 6 13 13 11 8 4 6 9 9 8 8 9 9 11 13 12 11 11 13 12 12 13 13 11 9 11 12 13 15 16 16 12 6 6 10 11 11 9 9 9 7 7 5 6 10 12 14 12 10 9 10 11 11 12 11 11 10 9 12 11 8 8 6 5 6
20 19 18 19 20 20 19 18 18 18 15 13 11 7 5 7 6 4 5 9 13 15 16 14 15 17 16 16 12 8 8 6 7 8 8 9 13 15 12 12 13 12 12 15 13 11 12 11 13 15 14 16 17 17 13 7 7 9 8 9 8 7 7 8 6 4 5 8 10 11 10 11 10 10 11 11 12 12 11 12 11 13 13 10 9 7 3 3
19 17 17 18 19 19 17 15 16 16 15 14 13 10 8 9 7 4 1 5 10 17 19 19 20 19 18 21 18 8 5 7 9 10 10 11 14 15 14 14 14 12 14 15 11 10 12 12 15 18 15 15 16 16 13 9 9 8 7 8 8 7 7 8 5 4 6 7 8 12 10 10 11 9 11 10 10 10 10 10 9 11 11 9 11 10 7 6
17 16 16 17 17 17 14 12 12 12 13 13 13 13 10 8 5 3 4 5 7 14 17 16 19 18 17 20 16 10 9 11 10 10 13 14 14 15 15 15 15 14 16 17 13 11 10 11 15 16 15 16 15 15 14 10 9 7 7 7 7 9 7 6 7 5 6 4 5 14 11 7 10 8 9 9 7 8 8 7 7 9 9 9 10 9 8 9
15 15 16 15 15 14 11 9 9 10 12 13 14 14 8 5 4 5 5 5 6 10 15 18 16 15 18 16 11 13 12 11 10 9 12 15 13 13 15 16 16 15 15 18 18 13 11 12 14 14 14 16 15 14 14 11 9 9 9 8 7 11 6 2 7 8 6 3 5 12 10 6 9 10 9 8 7 8 7 7 7 8 8 9 10 9 8 9
14 15 15 13 12 11 8 7 8 10 11 13 14 12 8 6 6 6 5 4 5 7 12 17 13 14 21 15 10 12 10 11 13 10 11 15 15 12 12 12 13 14 17 21 18 13 12 12 15 16 16 17 15 14 15 12 9 9 11 10 5 9 7 5 9 9 7 7 8 10 9 7 10 12 12 10 8 9 9 9 9 9 10 9 9 10 10 10
14 14 13 11 10 8 5 5 6 8 10 11 9 7 10 9 9 9 6 4 5 6 9 12 10 12 18 15 12 11 9 11 14 13 11 13 14 11 10 10 9 12 18 17 12 9 9 13 16 17 17 18 16 13 16 15 9 8 11 12 5 5 7 6 8 9 6 6 7 8 8 7 9 11 13 12 12 12 11 11 11 10 10 10 10 11 12 12
14 13 11 9 8 5 4 3 2 4 6 4 2 5 8 8 10 9 5 4 6 7 11 11 9 10 14 15 17 13 7 7 12 15 15 13 12 11 11 12 10 11 13 12 9 7 10 15 17 18 17 17 14 12 16 17 11 6 11 15 9 5 7 6 6 8 3 3 6 8 9 5 7 11 13 14 13 14 13 12 12 12 11 12 12 12 13 14
13 10 8 8 6 5 5 4 3 4 2 2 3 4 5 7 11 7 4 4 3 6 10 8 5 7 10 15 21 15 3 9 13 14 17 16 13 9 11 15 14 13 15 12 9 7 11 16 17 18 16 13 12 12 15 17 12 4 10 15 12 8 8 6 7 7 2 2 6 10 10 7 6 10 13 14 14 14 15 14 14 14 14 13 12 13 14 14
11 8 5 6 5 4 5 6 6 3 1 3 4 2 4 10 10 3 4 5 3 4 5 7 7 8 11 14 20 18 7 7 10 12 18 17 13 8 8 14 16 14 16 14 9 8 9 14 15 16 14 11 13 13 14 17 11 5 9 12 11 9 8 6 7 6 4 5 8 11 12 10 6 10 11 11 13 14 13 13 15 15 15 14 13 13 14 14
9 7 4 5 4 3 5 6 6 3 2 4 3 1 3 10 6 3 5 3 3 3 2 6 9 10 15 14 15 19 14 7 7 14 17 15 14 9 6 10 14 12 13 14 12 7 9 13 13 13 12 11 13 12 14 18 12 7 9 10 10 9 8 5 6 5 5 7 10 10 13 12 8 9 11 11 13 15 14 12 13 14 15 15 14 13 13 13
8 5 4 4 3 3 4 3 2 2 2 4 4 1 1 4 2 5 5 1 1 1 1 7 11 11 16 16 13 17 16 8 12 17 15 13 14 11 8 10 11 11 11 12 12 9 11 13 11 10 10 11 12 11 13 16 12 9 9 9 9 8 7 6 6 6 6 8 11 12 12 12 10 7 10 13 16 17 16 14 14 17 17 16 14 14 13 13
9 5 3 4 4 5 5 0 2 1 2 3 4 2 1 3 5 5 2 2 1 2 3 6 11 12 16 16 13 17 15 9 14 19 16 14 13 12 13 12 11 12 12 12 13 11 11 12 11 10 9 11 12 11 11 12 11 10 10 10 10 8 7 8 8 8 8 5 6 10 11 10 9 6 7 13 17 17 16 14 14 17 18 16 15 15 13 12
9 5 3 4 5 6 5 1 1 1 1 3 4 2 3 4 5 5 1 1 1 1 7 4 10 13 15 14 13 16 14 9 15 18 17 17 14 13 17 16 15 13 10 13 13 11 10 11 13 12 10 12 14 11 10 11 11 12 11 10 10 9 8 10 9 8 9 5 5 8 9 8 8 7 7 10 10 9 10 9 9 13 17 16 15 16 14 13
7 4 3 4 5 6 5 3 4 3 1 3 3 3 6 5 2 1 3 5 3 2 8 6 9 14 13 13 13 16 12 10 17 18 17 17 13 13 15 17 20 14 9 13 11 10 11 9 12 14 10 13 16 12 10 11 12 12 11 10 10 8 7 9 9 9 10 8 8 8 8 8 7 4 5 5 3 2 4 5 6 10 15 14 14 14 13 12
5 4 3 4 4 5 5 5 5 5 3 3 3 4 6 5 0 3 4 5 4 4 10 9 8 13 12 11 13 17 10 7 17 17 15 16 12 14 15 15 20 16 11 12 8 10 12 7 12 14 9 14 17 13 12 12 11 11 10 10 10 9 7 5 3 3 6 7 8 8 6 5 3 3 4 4 3 4 6 7 8 10 14 14 13 13 12 12
4 4 3 3 3 3 5 6 6 6 5 3 4 5 4 2 3 4 3 3 4 5 11 8 10 12 11 10 13 18 9 5 16 14 12 16 14 15 16 12 18 17 13 11 7 10 10 7 15 15 9 15 17 13 13 12 8 8 10 10 7 5 6 5 2 3 2 7 7 7 7 5 3 5 7 6 5 7 8 10 12 13 16 16 13 13 14 14
5 4 2 1 1 2 4 5 5 6 5 3 5 4 2 2 3 4 1 3 3 4 9 4 9 9 10 10 11 17 11 7 15 12 10 15 13 15 17 14 17 18 14 11 7 7 7 7 14 15 11 15 17 13 13 13 9 7 10 9 5 0 3 4 5 4 6 9 5 7 9 9 7 6 8 9 9 9 10 13 14 14 16 17 15 16 16 15
6 4 0 3 1 2 3 5 5 5 3 3 6 5 3 2 3 3 0 3 3 3 6 4 5 6 9 11 11 17 14 10 14 12 11 12 10 15 18 13 16 19 16 12 7 5 6 7 11 13 13 14 15 13 12 14 11 7 9 9 6 4 5 5 6 6 9 9 5 8 11 10 9 7 7 11 13 11 12 14 15 15 17 16 16 17 18 17
5 3 0 2 2 3 5 6 5 4 4 4 4 2 2 2 0 1 1 3 3 3 5 4 1 5 8 11 13 15 13 11 13 12 11 10 10 15 16 12 15 19 17 13 8 7 7 5 8 12 13 13 12 11 11 12 9 8 9 10 8 6 6 7 7 5 7 8 6 9 10 8 9 8 8 12 14 14 14 14 14 15 16 15 15 17 17 17
4 2 1 1 3 5 6 6 4 4 4 3 3 2 2 3 2 2 3 4 3 3 5 5 2 4 8 12 15 12 10 13 14 11 10 10 9 14 16 13 15 17 17 14 10 8 7 4 6 12 14 12 10 10 11 12 12 9 9 10 10 5 3 6 8 5 6 7 7 7 8 7 7 6 8 9 10 13 14 14 14 14 16 16 16 17 16 16
3 1 1 2 5 7 6 5 4 2 3 3 3 3 4 4 5 5 4 5 4 5 7 7 4 2 3 9 14 11 9 12 13 10 9 10 9 10 14 16 16 17 16 14 10 9 7 5 7 10 11 10 9 12 13 13 13 12 9 9 11 8 5 6 8 6 6 5 5 6 7 6 4 3 3 5 7 10 14 14 13 14 17 17 16 17 17 16
3 1 2 2 6 8 6 4 2 2 3 3 4 5 5 5 5 5 3 5 6 6 7 6 4 3 2 4 12 12 8 10 13 10 9 11 9 8 13 18 18 17 14 10 10 8 3 4 7 9 9 9 9 12 14 13 15 15 11 10 11 9 9 8 7 8 7 4 3 4 5 3 3 3 2 4 6 9 13 14 13 14 17 17 17 18 17 16
2 3 3 3 4 6 6 4 1 2 4 4 6 6 6 4 5 4 3 4 5 5 5 4 3 3 1 1 8 13 11 9 12 10 9 12 8 8 17 21 19 18 13 9 11 8 2 4 7 8 9 8 7 8 11 12 14 14 12 12 11 10 12 9 6 7 8 7 6 4 5 3 4 3 2 4 7 9 11 13 14 14 13 14 16 16 15 16
2 1 1 2 4 5 4 3 3 4 5 6 8 8 6 6 7 7 5 5 4 4 4 3 2 1 0 2 3 11 13 8 9 10 10 11 7 8 20 25 20 18 13 9 10 8 5 6 7 7 9 9 8 9 11 12 13 11 10 12 12 13 14 10 7 7 8 11 11 7 6 4 4 3 3 6 9 11 11 12 14 14 13 12 13 13 13 16
1 1 1 2 4 4 4 3 4 5 6 8 10 10 7 5 6 8 7 7 7 6 4 1 1 2 2 2 2 7 10 7 7 9 9 10 6 6 18 25 21 17 14 11 11 9 6 6 7 8 9 10 10 9 9 11 11 9 11 15 15 16 16 10 6 7 8 11 13 10 5 4 5 3 6 8 10 11 12 12 13 13 14 14 13 12 13 15
2 1 1 1 3 3 4 3 4 5 6 7 8 7 5 4 4 6 8 8 7 7 5 3 2 3 3 4 5 8 9 8 7 8 9 9 6 6 17 22 21 18 14 13 13 9 5 6 9 9 8 8 9 8 9 11 11 11 14 16 16 16 16 11 8 8 8 9 10 11 9 3 6 7 8 10 11 11 12 14 14 13 14 15 14 12 13 15
2 1 2 2 2 3 4 4 4 5 4 4 3 3 3 5 5 3 6 5 3 4 4 2 3 3 4 8 10 10 10 9 9 9 11 9 7 9 16 18 19 16 13 12 14 9 4 7 10 8 4 3 3 6 11 14 15 14 15 16 16 17 16 14 10 8 9 8 8 12 12 8 5 9 10 11 12 12 12 13 13 13 13 14 14 13 14 15
2 1 1 2 2 3 3 3 5 7 8 5 2 1 3 6 6 3 3 3 2 3 2 2 2 4 5 7 8 9 10 9 9 10 10 9 10 12 13 13 14 14 14 13 13 8 5 7 10 7 2 3 4 5 9 14 16 16 16 17 18 19 19 17 13 10 9 8 7 10 14 13 9 8 11 12 12 12 12 11 11 13 13 14 15 15 15 16
2 2 2 3 3 5 6 7 8 10 10 7 4 3 3 5 6 2 2 3 2 2 1 1 3 2 4 6 6 8 9 7 8 8 8 10 12 11 11 11 9 11 14 14 11 7 5 5 8 8 5 4 4 4 7 11 14 16 17 18 18 19 20 18 16 14 11 9 7 5 11 14 9 3 8 11 10 10 11 10 12 15 15 15 16 16 16 15
3 3 3 4 6 7 7 7 7 7 7 4 3 3 3 3 4 2 0 1 4 5 0 1 4 4 2 5 8 7 5 4 6 8 8 11 12 10 9 8 8 12 15 12 8 7 6 4 8 8 6 5 3 3 6 10 12 14 16 17 18 19 19 18 17 15 13 12 9 5 7 10 4 3 7 11 9 10 12 13 14 15 16 17 17 17 18 17
6 6 6 6 6 6 5 5 6 5 4 2 1 2 1 1 3 3 3 4 6 4 2 3 3 3 4 6 8 7 6 6 4 5 5 5 7 7 7 8 10 13 13 10 8 8 7 4 6 7 7 6 4 4 6 9 11 13 16 17 18 18 16 16 15 13 12 12 11 9 9 7 5 7 9 10 11 12 15 16 15 14 16 19 18 16 18 19
9 6 5 5 4 4 5 7 7 5 4 6 6 5 5 6 7 4 3 4 5 4 5 5 2 2 6 7 6 5 5 5 5 4 2 2 3 5 4 8 14 13 10 9 8 8 8 5 5 7 7 5 5 4 6 8 10 11 10 11 14 15 14 14 12 11 12 13 10 9 8 4 9 11 10 11 13 14 15 16 15 15 16 18 18 17 17 18
Wind_Direction
335 331 330 326 318 309 297 292 292 296 301 303 306 309 311 312 314 316 316 318 321 321 324 327 327 329 326 325 325 319 319 316 309 297 267 260 254 244 250 247 270 238 199 203 225 222 192 189 185 182 195 190 207 208 183 195 196 196 212 221 227 225 228 224 213 202 209 135 138 151 30 312 319 349 224 214 219 217 195 189 180 152 125 90 111 125 140 143
332 330 329 326 323 320 313 304 295 287 287 293 299 302 305 306 309 311 312 315 316 319 323 325 327 329 326 326 323 319 319 311 299 286 269 266 268 254 249 247 249 215 194 209 219 214 205 195 181 184 199 191 191 188 178 183 193 205 215 221 227 229 220 208 222 214 242 220 160 203 358 316 323 354 251 229 212 196 189 178 170 156 123 116 124 134 142 142
325 325 325 323 321 320 318 315 308 299 287 282 287 294 296 295 303 307 308 312 313 315 319 323 327 326 327 326 321 321 318 308 292 276 269 257 255 246 241 241 236 222 211 214 217 213 217 210 183 190 204 202 194 185 188 183 190 214 223 225 229 233 202 181 226 236 254 269 286 282 316 302 304 334 283 259 217 193 195 180 174 171 144 141 144 145 146 145
322 322 321 319 317 317 316 316 314 310 302 290 283 283 287 290 295 301 304 306 309 311 316 323 325 325 327 323 319 324 315 298 274 113 66 125 168 26 235 233 228 224 218 222 232 218 219 219 195 199 210 209 198 194 202 183 184 211 216 231 237 231 225 210 219 233 252 270 283 290 294 284 293 298 276 263 224 202 203 188 181 177 155 153 155 153 151 149
323 323 322 318 315 315 313 312 312 310 308 304 295 283 278 282 288 294 296 301 304 307 316 320 323 327 324 320 320 321 304 281 121 87 63 62 52 23 309 258 226 216 213 217 221 210 213 213 201 203 213 214 195 196 208 191 197 218 215 237 251 230 233 203 195 229 252 270 276 277 279 291 308 281 267 254 234 208 198 179 175 174 155 155 159 157 155 155
319 320 319 318 317 316 313 310 308 307 308 308 305 297 283 274 277 285 285 293 299 303 314 316 323 326 319 322 320 305 277 263 85 94 68 41 16 358 335 284 233 203 201 208 206 203 206 203 201 203 209 216 202 201 210 194 203 226 216 228 232 229 238 194 194 235 254 263 267 272 285 304 288 274 267 250 240 214 171 164 157 162 153 155 159 159 160 160
314 316 314 314 315 315 315 311 307 304 305 305 305 305 296 280 269 273 278 281 291 300 309 311 320 320 318 325 312 273 251 267 309 186 265 18 3 352 350 314 218 192 192 201 200 199 200 197 201 202 205 214 208 204 204 189 197 227 227 216 221 231 237 240 247 253 260 263 269 279 286 282 272 276 279 247 227 160 168 169 150 150 154 159 162 162 161 159
311 311 310 309 310 311 311 311 310 305 302 303 301 302 304 295 273 262 270 275 282 294 301 308 318 318 321 326 307 265 247 256 255 241 264 323 356 357 358 359 190 185 189 199 198 197 196 197 202 201 210 211 205 201 191 189 199 222 233 215 216 226 230 240 250 255 258 262 266 271 273 270 271 283 277 244 202 166 175 166 150 149 158 164 164 162 159 159
308 307 306 305 305 306 307 307 308 307 304 301 301 298 300 304 285 259 259 271 275 280 292 301 306 312 319 320 295 278 254 247 250 255 280 309 337 354 0 28 189 189 194 201 198 198 196 198 202 201 221 213 197 197 187 199 207 213 226 225 216 221 222 229 236 246 250 253 260 261 261 261 266 274 254 211 174 164 164 157 153 156 162 164 163 161 159 158
305 304 303 301 301 301 302 304 304 304 305 302 301 298 295 302 293 266 252 260 269 271 281 289 295 303 302 303 267 257 312 53 260 268 323 324 318 337 340 308 215 206 204 202 199 200 199 203 201 200 243 223 196 201 194 207 214 196 219 227 228 232 228 229 237 243 247 247 248 251 257 257 230 247 227 162 160 167 163 161 162 164 163 163 162 160 158 158
297 298 298 297 297 297 297 298 300 300 303 303 301 297 295 299 298 279 253 249 262 266 273 277 288 294 274 274 252 244 59 54 327 323 320 317 313 311 304 303 248 220 214 206 202 201 203 209 199 189 232 210 191 204 201 208 217 176 208 222 227 236 233 230 238 238 240 239 233 240 253 249 209 232 210 145 159 171 166 165 166 166 164 164 162 159 159 158
295 293 292 291 291 291 292 292 295 297 298 301 300 297 296 295 297 287 257 241 251 258 262 261 269 282 267 259 244 239 264 298 302 306 302 306 302 292 288 287 254 223 219 212 205 200 205 210 197 195 200 182 185 196 197 199 213 198 201 224 215 218 226 222 226 226 225 223 215 225 238 228 209 212 159 143 159 165 166 165 163 165 165 162 159 158 159 157
302 298 292 287 285 284 286 287 289 292 293 296 297 294 293 292 292 291 263 235 240 251 249 241 249 267 262 257 250 248 266 286 294 295 293 295 288 282 277 270 245 223 221 222 211 198 200 204 203 205 201 207 190 138 156 180 202 207 205 234 211 205 221 211 209 215 217 212 201 214 223 207 192 180 145 152 165 163 161 162 160 163 165 160 158 160 157 154
303 302 298 291 286 282 281 281 283 286 289 291 293 291 288 287 286 291 276 239 229 239 238 227 238 261 258 262 267 264 271 280 283 283 284 285 276 271 261 242 224 214 215 231 221 192 189 195 208 212 209 237 201 123 167 176 192 204 197 222 224 222 208 185 193 204 202 190 196 220 235 195 168 149 126 129 151 165 162 160 162 164 164 162 161 160 155 156
303 301 300 296 290 284 281 278 278 279 283 286 290 290 284 282 281 287 281 245 222 227 233 231 238 255 269 272 271 270 269 267 268 271 269 262 256 256 240 205 197 199 204 220 215 185 181 184 201 207 194 219 208 178 192 181 192 203 198 204 213 227 177 160 183 201 198 180 195 218 234 192 153 121 96 87 86 98 172 166 164 166 162 163 165 161 160 161
305 303 301 299 293 287 282 277 274 273 276 281 287 288 283 281 278 281 276 237 217 219 228 241 238 243 273 287 280 260 245 237 253 269 255 238 238 233 209 182 181 182 190 198 194 182 182 187 200 212 195 190 199 199 194 188 193 199 210 206 193 205 185 155 175 198 205 186 192 214 234 195 139 114 104 110 123 142 180 174 168 170 159 157 166 164 162 162
307 305 304 302 297 290 284 278 273 271 273 278 284 286 286 284 277 278 265 221 212 216 225 244 237 233 258 271 284 266 237 235 256 274 254 234 232 226 202 176 172 172 174 174 179 180 184 194 196 209 208 197 199 201 197 198 193 187 207 214 188 198 200 161 162 183 203 205 194 208 232 172 119 128 141 146 154 165 166 148 146 168 156 156 168 168 164 162
306 306 305 304 300 294 288 280 272 268 269 271 278 283 287 286 278 270 234 203 198 206 224 236 220 233 245 241 259 278 301 300 289 281 269 244 230 224 202 181 168 165 165 166 176 180 182 191 192 197 202 200 200 200 203 200 190 185 192 200 186 194 208 181 154 162 190 208 201 200 214 154 121 148 162 157 164 162 143 127 111 151 185 172 171 172 168 164
305 304 304 304 303 298 290 281 271 264 261 263 271 280 286 286 276 245 212 193 177 178 216 195 190 225 295 234 235 289 314 301 286 269 252 223 208 207 202 191 172 170 172 169 177 183 182 185 195 203 198 197 198 199 207 203 189 188 187 195 190 186 201 180 127 132 185 204 199 198 204 167 146 165 163 158 161 150 140 144 144 158 191 195 176 172 171 166
301 301 302 304 304 302 292 280 271 261 253 254 261 270 272 255 232 224 208 200 205 225 257 220 201 231 285 285 267 324 312 286 261 237 217 202 186 184 191 187 176 181 186 177 174 179 184 192 199 203 199 193 195 200 206 207 190 188 189 200 201 188 186 163 123 121 191 206 194 198 198 170 164 172 162 159 163 158 153 160 168 163 167 185 171 148 152 153
297 297 300 303 305 305 295 278 266 256 245 242 242 243 244 236 242 240 193 208 223 232 250 252 234 239 261 273 283 320 323 281 252 234 215 199 185 179 180 181 180 185 192 182 167 170 189 206 202 200 200 189 191 199 202 202 192 190 195 196 201 199 168 147 139 131 190 216 192 190 195 174 171 172 161 160 167 168 164 166 179 172 160 162 143 106 77 68
294 294 299 302 304 304 297 277 261 252 243 237 232 233 247 252 270 315 270 235 227 226 239 248 246 247 252 261 267 276 286 267 258 236 208 194 194 187 174 181 186 181 187 183 168 174 196 213 203 196 198 188 188 195 196 195 193 195 201 198 199 187 138 136 149 133 187 220 185 179 193 174 166 168 161 166 172 166 169 175 179 168 148 144 143 138 150 124
296 296 299 302 304 305 298 275 259 251 244 235 229 237 251 256 263 277 260 278 260 232 230 233 237 240 241 250 249 227 234 247 246 225 194 189 201 194 179 183 188 183 184 186 183 183 194 208 199 189 187 183 182 188 193 194 199 205 199 200 196 173 154 162 168 154 183 232 193 180 188 166 161 170 161 167 175 156 157 177 179 167 148 143 156 159 153 133
305 301 300 302 305 304 291 272 257 242 238 234 237 244 245 235 225 222 225 260 278 246 231 225 225 229 232 240 223 202 224 236 232 223 191 190 199 195 191 187 186 188 186 189 192 194 199 195 180 174 178 182 181 185 193 196 198 205 203 209 190 171 179 155 148 152 168 208 197 179 182 171 171 182 173 165 175 168 162 167 172 173 164 154 156 154 143 134
310 304 301 303 307 301 284 269 247 237 240 237 243 245 228 213 208 211 217 240 257 240 228 219 217 229 229 225 196 191 224 234 226 220 191 195 200 191 192 191 192 192 186 189 194 201 203 178 166 177 185 189 189 188 194 197 195 198 206 217 192 162 167 119 140 165 176 186 189 187 195 186 182 192 185 171 178 187 183 179 179 171 166 164 158 152 149 147
310 304 302 301 305 296 268 259 240 236 240 237 246 238 215 207 200 208 220 252 255 217 196 192 189 207 208 200 181 186 229 233 216 210 197 204 209 201 190 185 198 198 185 185 196 208 190 166 173 186 186 189 194 194 194 196 203 199 197 208 200 150 163 145 162 187 192 176 173 201 220 184 179 198 191 180 185 191 190 192 191 176 173 181 172 159 156 155
311 305 298 295 299 280 250 271 257 233 239 254 263 207 205 190 186 202 216 251 248 193 173 175 170 173 179 177 170 182 225 192 180 199 202 203 211 219 209 184 189 197 180 177 197 199 170 169 182 186 184 190 195 197 191 194 213 198 175 192 197 176 174 166 187 202 196 118 148 200 233 212 187 200 194 189 190 191 193 195 191 182 187 193 178 167 166 163
314 307 293 290 290 264 257 278 271 243 244 35 96 176 203 168 171 187 209 228 208 156 167 173 155 155 167 169 173 188 202 138 160 184 189 195 200 216 215 189 184 182 174 181 186 161 163 177 182 183 188 193 197 195 183 193 215 173 154 185 196 196 193 188 206 212 192 177 185 192 216 233 200 184 187 195 198 197 196 195 195 189 191 195 182 174 173 169
318 310 285 284 284 264 255 255 265 267 181 148 129 141 183 161 160 187 232 224 169 140 154 156 157 160 163 170 182 198 202 165 179 165 167 190 202 224 231 191 183 173 174 193 186 143 168 186 180 183 194 193 196 192 175 192 210 145 152 187 194 201 209 209 219 215 187 214 215 184 190 220 209 170 179 197 201 202 200 197 197 191 188 193 186 178 176 174
327 315 282 274 269 257 240 237 253 263 181 186 167 32 161 152 150 222 215 211 160 157 104 148 173 168 163 171 184 198 205 192 163 148 159 181 189 213 242 188 184 173 173 200 203 160 161 182 185 192 202 196 192 184 174 193 199 152 165 185 186 198 207 210 226 225 200 212 220 192 187 214 218 177 180 196 202 203 206 202 194 186 186 192 188 180 179 178
335 319 283 269 258 252 236 227 251 227 211 203 173 96 149 149 209 228 189 168 145 132 73 167 171 164 168 175 177 191 201 182 153 156 162 172 176 189 191 175 181 174 172 196 202 173 159 178 187 191 205 197 183 177 179 193 192 175 186 188 183 190 194 201 210 214 217 217 213 198 191 210 221 197 178 188 199 205 211 209 193 185 187 189 185 180 179 178
333 321 292 273 260 260 251 290 43 138 205 193 153 116 178 178 224 237 176 176 198 6 316 189 169 165 174 182 177 182 191 174 164 167 164 169 176 184 185 178 174 175 179 186 184 174 173 184 179 175 197 195 179 174 179 189 192 194 197 190 187 183 184 204 202 201 217 215 191 191 193 206 225 228 186 184 195 202 211 214 200 187 185 183 180 179 177 175
328 326 307 273 248 249 249 203 142 170 159 161 135 128 227 214 212 225 216 78 125 341 311 264 178 171 175 183 178 178 186 174 170 172 168 171 174 180 191 191 185 185 183 178 177 174 175 181 178 177 188 195 193 185 179 185 192 199 199 190 194 188 184 200 199 199 211 186 143 180 198 210 226 224 190 180 191 197 202 217 213 190 180 178 179 177 174 173
321 321 294 268 247 243 241 206 197 219 187 173 161 182 231 241 202 164 36 28 35 307 309 292 181 170 177 185 173 172 182 169 170 174 169 173 177 180 191 192 189 192 176 175 184 181 178 179 183 186 181 186 200 201 183 181 189 199 203 199 205 201 188 199 201 199 204 186 154 165 191 211 216 190 147 148 152 161 180 201 212 185 174 174 176 173 168 169
302 304 279 257 251 246 235 215 210 220 204 197 224 216 232 250 23 46 33 12 357 337 320 299 193 169 175 180 169 174 187 166 170 178 173 176 182 180 185 186 186 191 180 174 178 179 188 179 169 182 184 179 194 205 188 183 189 195 201 206 212 214 197 190 212 205 198 196 175 171 196 213 191 135 132 147 162 181 190 192 191 178 170 169 169 167 165 169
275 265 248 223 243 239 222 217 206 201 197 214 244 231 246 296 44 40 23 351 337 326 317 288 188 168 167 168 169 178 199 188 173 178 176 179 185 181 181 179 181 187 183 173 167 176 187 160 154 168 181 182 191 199 190 191 190 183 201 207 201 221 216 179 132 62 173 212 194 179 201 204 196 192 175 172 186 191 192 192 189 179 170 166 165 171 173 172
262 251 224 148 226 220 203 203 184 185 200 239 261 260 309 8 56 54 23 323 295 288 311 278 176 174 168 164 169 175 182 181 175 179 177 179 186 181 179 177 178 186 185 173 166 177 176 143 154 167 171 182 191 187 191 207 203 181 197 192 148 145 268 204 180 150 189 217 194 177 205 207 208 203 168 175 197 194 188 188 183 176 172 169 170 176 173 164
263 249 120 73 93 179 188 183 174 191 221 251 257 268 317 357 70 76 129 291 291 280 300 278 185 186 172 164 168 171 172 169 173 180 176 177 185 181 179 175 176 186 186 173 164 185 184 142 156 176 167 170 184 184 193 209 215 218 203 180 165 196 215 207 203 184 194 214 206 198 214 213 209 200 171 185 197 190 186 185 177 174 177 175 171 171 166 155
253 238 200 66 112 161 170 174 187 220 238 254 264 279 341 336 101 125 212 266 295 283 287 297 195 187 179 166 162 170 176 170 170 177 177 181 180 178 178 165 170 183 182 176 171 179 197 160 157 181 169 159 177 193 197 191 196 229 213 187 197 219 210 201 205 200 197 208 214 205 207 213 213 206 195 196 194 186 181 180 178 176 175 174 169 170 166 157
238 242 116 119 184 170 162 178 208 239 243 267 300 309 305 303 282 262 237 235 264 262 276 318 348 170 167 160 160 170 182 172 170 176 177 177 165 171 181 169 168 177 176 181 179 165 191 193 156 176 173 166 180 197 201 185 179 203 206 190 194 205 219 201 198 210 215 208 208 205 208 212 204 204 217 210 189 180 177 175 176 172 169 170 172 171 166 160
245 260 103 166 196 181 185 211 221 257 273 279 293 281 288 308 295 282 248 220 236 249 263 297 300 210 163 165 163 165 175 170 173 181 175 170 163 169 181 173 168 172 173 183 180 165 191 199 159 166 176 184 187 190 200 195 184 193 199 192 193 192 198 197 191 204 227 224 212 213 221 211 167 156 216 206 174 173 176 173 172 171 170 171 174 172 166 163
263 341 96 156 185 189 226 257 235 276 294 308 313 294 302 313 289 283 260 232 246 248 252 274 266 237 262 185 164 161 170 167 171 181 170 166 169 164 170 173 172 171 173 180 171 160 193 201 169 166 181 191 175 179 200 199 188 196 203 199 197 194 198 202 193 191 204 224 219 225 236 206 106 94 144 176 169 170 173 170 169 173 174 172 172 173 168 162
327 27 113 154 189 211 258 289 273 283 292 306 311 292 280 281 272 275 278 254 248 238 243 250 221 205 252 210 168 166 170 168 170 175 164 164 167 158 166 174 176 174 178 184 170 154 153 201 180 163 174 181 152 168 202 203 195 201 206 205 201 194 198 212 214 190 193 205 197 208 226 184 98 86 142 176 170 166 172 171 168 171 174 172 169 168 164 156
4 356 166 175 202 229 282 310 296 303 300 298 305 296 273 260 259 261 260 245 228 239 253 221 179 188 197 312 240 174 164 164 172 170 165 167 156 151 169 175 177 178 183 185 171 161 173 198 188 165 168 176 169 181 200 202 203 206 204 203 202 197 197 209 218 194 195 207 203 212 223 172 103 86 149 174 172 166 171 172 166 166 165 164 162 159 158 154
297 283 216 191 203 233 283 309 299 298 299 300 302 298 284 260 245 241 246 251 244 249 264 207 196 296 268 280 265 174 161 160 164 162 165 165 136 151 178 177 177 180 183 180 170 165 182 199 194 184 179 182 189 193 193 193 198 205 204 201 200 199 195 194 201 197 200 205 204 217 223 135 109 128 157 169 173 168 169 168 165 162 158 155 155 154 157 157
301 322 317 220 208 232 256 267 271 275 292 303 301 296 277 257 257 239 236 247 241 234 252 273 275 280 248 206 176 162 159 156 153 155 163 155 126 160 180 178 180 180 172 171 172 170 188 203 205 211 203 195 201 194 177 179 187 196 201 199 197 199 196 194 203 208 205 202 202 215 225 177 134 155 166 172 175 174 174 171 166 161 156 152 150 152 155 156
317 320 333 320 265 244 248 242 238 245 263 280 299 311 263 259 289 261 221 231 238 224 232 257 253 230 179 174 170 160 154 154 150 147 153 145 122 147 167 176 184 172 150 164 180 179 193 196 199 219 222 183 172 157 164 178 186 190 193 193 195 197 198 202 212 214 204 202 205 205 218 233 180 158 169 179 179 179 181 180 171 161 157 152 147 145 148 150
335 294 261 280 272 270 275 265 264 265 261 251 235 262 267 276 290 270 209 238 261 239 220 163 220 234 194 180 177 162 154 156 149 140 143 142 132 140 156 172 181 164 153 174 183 184 207 190 186 206 196 82 78 121 168 187 190 191 192 192 194 197 200 203 211 216 207 212 216 190 197 224 225 182 175 177 179 182 181 180 169 153 150 149 146 144 144 147
334 314 248 246 266 275 275 280 284 279 273 264 234 228 248 275 284 269 215 232 170 152 265 131 111 168 192 192 191 172 159 157 151 141 138 139 141 147 156 166 176 173 175 181 178 190 222 177 167 189 178 108 84 128 178 196 194 196 199 196 194 198 201 202 207 212 211 219 235 200 190 212 232 212 169 162 166 175 170 166 165 156 151 149 149 149 148 151
330 318 301 290 289 284 279 278 278 276 276 264 230 231 229 258 303 346 32 311 80 93 329 29 76 69 124 172 179 163 129 112 142 148 140 135 143 156 161 162 172 178 183 183 170 187 218 159 151 183 180 142 124 140 178 197 198 199 201 198 197 198 200 203 206 208 210 217 229 237 217 211 198 99 139 147 152 167 168 166 167 164 158 154 155 157 157 160
323 294 302 310 303 303 308 300 292 294 307 306 299 308 264 270 334 23 80 38 48 66 9 11 44 51 87 130 144 122 67 46 82 118 124 123 133 147 157 164 167 171 179 183 169 179 207 179 158 196 201 167 155 158 168 185 195 201 204 201 199 199 199 203 206 203 205 212 213 221 234 217 157 134 143 148 158 171 175 175 171 169 165 162 161 163 164 164
334 304 303 303 291 315 327 323 330 347 347 335 336 344 14 35 35 57 90 66 57 42 11 7 8 71 94 97 91 60 17 3 23 45 47 47 97 112 127 161 169 172 175 175 173 182 197 197 180 201 206 166 159 172 159 167 188 200 204 201 201 203 201 199 200 197 204 213 212 215 226 184 145 151 153 161 174 180 183 183 175 169 169 169 164 162 164 162